Kingman, AZ

2:26 PM MST on December 13, 2017 (GMT -0700)
Kingman

Weather History for KIGM - January, 2014

Change the Weather History Date:

Friday, January 31, 2014

  Actual Average Record
Temperature  
Mean Temperature 48 °F 45 °F  
Max Temperature 56 °F 58 °F 75 °F (2003)
Min Temperature 40 °F 32 °F 10 °F (1979)
Degree Days  
Heating Degree Days 17 20  
Month to date heating degree days 554 655  
Since 1 July heating degree days 1930 1905  
Cooling Degree Days 0 0  
Month to date cooling degree days 0 0  
Year to date cooling degree days 0 0  
Moisture  
Dew Point 32 °F    
Average Humidity 53    
Maximum Humidity 65    
Minimum Humidity 41    
Precipitation  
Precipitation 0.01 in 0.04 in 0.91 in (1923)
Month to date precipitation 0.01 1.02  
Year to date precipitation 0.01 1.02  
Sea Level Pressure  
Sea Level Pressure 29.69 in    
Wind  
Wind Speed 14 mph (WSW)    
Max Wind Speed 28 mph    
Max Gust Speed 34 mph    
Visibility 10 miles    
Events      
T = Trace of Precipitation, MM = Missing Value Source: NWS Daily Summary

Daily Weather History Graph

Daily Weather History Graph

Search for Another Location

Airport or City:

Trip Planner

Search our weather history database for the weather conditions in past years. The results will help you decide how hot, cold, wet, or windy it might be!

Date:

Astronomy

Jan. 31, 2014 Rise Set
Actual Time 7:35 AM MST 6:03 PM MST
Civil Twilight 7:08 AM MST 6:29 PM MST
Nautical Twilight 6:38 AM MST 7:00 PM MST
Astronomical Twilight 6:08 AM MST 7:30 PM MST
Moon 7:52 AM MST (1/31) 7:27 PM MST (1/31)
Length of Visible Light 11h 20m
Length of Day
10h 27m
New Moon, 1% of the Moon is Illuminated
Jan 31
New Moon
Feb 6
First Quarter
Feb 14
Full
Feb 22
Last Quarter
Mar 1
New

Hourly Weather History & Observations

Time (MST) Temp. Windchill Dew Point Humidity Pressure Visibility Wind Dir Wind Speed Gust Speed Precip Events Conditions
12:51 AM 52.0 °F - 33.1 °F 49% 29.61 in 10.0 mi SSW 16.1 mph - N/A   Clear
1:51 AM 51.1 °F - 34.0 °F 52% 29.61 in 10.0 mi SW 23.0 mph - N/A   Clear
2:51 AM 51.1 °F - 35.1 °F 54% 29.62 in 10.0 mi WSW 25.3 mph 34.5 mph N/A   Clear
3:51 AM 50.0 °F - 35.1 °F 57% 29.62 in 10.0 mi SW 16.1 mph - N/A   Partly Cloudy
4:51 AM 50.0 °F - 36.0 °F 59% 29.60 in 10.0 mi SW 17.3 mph - N/A   Partly Cloudy
5:51 AM 50.0 °F - 35.1 °F 57% 29.63 in 10.0 mi SSW 11.5 mph - N/A   Overcast
6:51 AM 48.9 °F - 36.0 °F 61% 29.64 in 10.0 mi SSW 10.4 mph - N/A   Overcast
7:51 AM 48.9 °F - 35.1 °F 59% 29.66 in 10.0 mi SW 18.4 mph - N/A   Overcast
8:51 AM 48.9 °F - 35.1 °F 59% 29.68 in 10.0 mi WSW 13.8 mph 21.9 mph N/A   Overcast
9:51 AM 48.9 °F - 33.1 °F 54% 29.72 in 10.0 mi WSW 20.7 mph 28.8 mph N/A   Partly Cloudy
10:51 AM 51.1 °F - 32.0 °F 48% 29.72 in 10.0 mi SW 20.7 mph 26.5 mph N/A   Overcast
11:51 AM 52.0 °F - 30.9 °F 45% 29.71 in 10.0 mi SW 18.4 mph 31.1 mph N/A   Mostly Cloudy
12:51 PM 54.0 °F - 30.0 °F 40% 29.69 in 10.0 mi WSW 21.9 mph - N/A   Overcast
1:45 PM 48.9 °F - 33.1 °F 54% 29.80 in 10.0 mi WNW 19.6 mph 26.5 mph N/A   Overcast
1:51 PM 48.0 °F - 34.0 °F 58% 29.69 in 10.0 mi NW 13.8 mph 26.5 mph N/A   Overcast
1:54 PM 48.0 °F - 34.0 °F 58% 29.80 in 10.0 mi NW 13.8 mph - N/A   Overcast
2:51 PM 52.0 °F - 33.1 °F 49% 29.67 in 10.0 mi West 13.8 mph - 0.01 in   Mostly Cloudy
3:51 PM 52.0 °F - 28.9 °F 41% 29.68 in 10.0 mi WSW 15.0 mph - N/A   Overcast
4:51 PM 51.1 °F - 30.0 °F 44% 29.69 in 10.0 mi West 13.8 mph - N/A   Overcast
5:51 PM 50.0 °F - 28.9 °F 44% 29.70 in 10.0 mi West 15.0 mph - N/A   Partly Cloudy
6:51 PM 48.9 °F - 28.9 °F 46% 29.71 in 10.0 mi WSW 13.8 mph - N/A   Clear
7:51 PM 46.9 °F - 28.0 °F 48% 29.71 in 10.0 mi WSW 6.9 mph - N/A   Mostly Cloudy
8:51 PM 45.0 °F 41.2 °F 32.0 °F 60% 29.74 in 10.0 mi NNW 6.9 mph - N/A   Mostly Cloudy
9:51 PM 41.0 °F 36.4 °F 30.9 °F 67% 29.75 in 10.0 mi South 6.9 mph - N/A   Overcast
10:51 PM 41.0 °F - 30.9 °F 67% 29.75 in 10.0 mi Calm Calm - N/A   Overcast
11:51 PM 39.9 °F 36.7 °F 32.0 °F 73% 29.76 in 10.0 mi South 4.6 mph - N/A   Overcast